Location: Lawrence
(38.9720°N, 95.2350°W)
Time: 10:41:04
(UTC-05:00)

JAS-1B - Visible Passes

Search period start: 25 September 2016 00:00
Search period end: 05 October 2016 00:00
Orbit: 912 x 1743 km, 99.0° (Epoch: 25 September)

Date Brightness Start Highest point End Pass type
(mag) Time Alt. Az. Time Alt. Az. Time Alt. Az.
25 Sep 10.7 03:43:08 10° ENE 03:46:21 12° NE 03:49:39 10° NNE visible
25 Sep 8.8 05:26:17 10° SE 05:34:24 52° ENE 05:43:37 10° N visible
25 Sep 10.2 20:55:52 10° N 21:02:58 24° NW 21:09:33 10° WSW visible
26 Sep 10.4 03:59:44 10° E 04:04:48 17° NE 04:10:06 10° NNE visible
26 Sep 8.4 05:44:54 10° SSE 05:53:17 67° ENE 06:02:53 10° N visible
26 Sep 8.4 19:23:14 10° N 19:32:51 75° WNW 19:41:07 10° SSW visible
26 Sep 10.4 21:15:39 10° NNW 21:21:31 19° NW 21:27:04 10° W visible
27 Sep 10.2 04:17:03 10° E 04:23:20 22° NE 04:30:00 10° N visible
27 Sep 8.2 06:03:43 10° SSE 06:12:15 85° ENE 06:22:02 10° NNW visible
27 Sep 8.7 19:42:26 10° N 19:51:45 58° WNW 19:59:50 10° SW visible
27 Sep 10.6 21:35:48 10° NNW 21:40:00 14° NW 21:44:03 10° WNW visible
28 Sep 9.9 04:34:47 10° ESE 04:41:56 28° ENE 04:49:39 10° N visible
28 Sep 8.0 06:22:45 10° S 06:31:19 77° WSW 06:41:08 10° NNW visible
28 Sep 9.2 20:01:45 10° N 20:10:35 45° WNW 20:18:20 10° SW visible
28 Sep 10.8 21:57:48 10° NW 21:58:24 10° NW 21:59:00 10° NW visible
29 Sep 9.5 04:52:47 10° ESE 05:00:37 36° ENE 05:09:08 10° N visible
29 Sep 8.1 06:41:59 10° S 06:50:28 60° W 07:00:07 10° NNW visible
29 Sep 9.6 20:21:08 10° N 20:29:20 35° WNW 20:36:37 10° WSW visible
30 Sep 10.8 03:29:41 10° NE 03:31:32 11° NE 03:33:24 10° NNE visible
30 Sep 9.1 05:11:04 10° SE 05:19:23 46° ENE 05:28:31 10° N visible
30 Sep 9.9 20:40:39 10° N 20:48:00 27° WNW 20:54:39 10° WSW visible
01 Oct 10.5 03:45:27 10° ENE 03:49:57 15° NE 03:54:34 10° NNE visible
01 Oct 8.7 05:29:34 10° SE 05:38:13 59° ENE 05:47:49 10° N visible
01 Oct 10.2 21:00:20 10° N 21:06:35 21° NW 21:12:21 10° W visible
02 Oct 10.3 04:02:30 10° E 04:08:27 19° NE 04:14:38 10° NNE visible
02 Oct 8.4 05:48:16 10° SSE 05:57:08 74° ENE 06:07:01 10° N visible
02 Oct 8.4 19:27:25 10° N 19:36:36 67° WNW 19:44:22 10° SSW visible
02 Oct 10.5 21:20:18 10° NNW 21:25:06 16° NW 21:29:37 10° W visible
03 Oct 10.0 04:20:02 10° ESE 04:27:01 25° NE 04:34:22 10° N visible
03 Oct 8.1 06:07:11 10° SSE 06:16:10 88° WSW 06:26:10 10° NNW visible
03 Oct 8.8 19:46:39 10° N 19:55:28 51° WNW 20:02:59 10° SW visible
03 Oct 10.6 21:41:02 10° NNW 21:43:32 11° NW 21:45:58 10° WNW visible
04 Oct 9.7 04:37:54 10° ESE 04:45:41 32° ENE 04:53:55 10° N visible
04 Oct 8.1 06:26:18 10° S 06:35:16 70° WSW 06:45:12 10° NNW visible
04 Oct 9.3 20:06:01 10° N 20:14:15 39° WNW 20:21:24 10° SW visible
